This is the latest recevied weather packets stored in our database for station/object KC9GSD. If no packets are shown the sender has not sent any weather packets the latest 10 day(s).
| Time | Temp. | Humidity | Pressure | Rain* | Wind** | Luminosity | Snow |
|---|---|---|---|---|---|---|---|
| 1778161794 | 14.44° C | 97% | 1013 hPa | 0 mm | - | 108 W/m² | - |
| 1778161490 | 14.44° C | 97% | 1013 hPa | 0 mm | - | 100 W/m² | - |
| 1778161186 | 14.44° C | 97% | 1013.1 hPa | 0 mm | - | 93 W/m² | - |
| 1778160883 | 14.44° C | 97% | 1013.1 hPa | 0 mm | - | 106 W/m² | - |
| 1778160581 | 14.44° C | 97% | 1013 hPa | 0 mm | - | 80 W/m² | - |
| 1778160277 | 13.89° C | 97% | 1012.8 hPa | 0 mm | - | 66 W/m² | - |
| 1778159973 | 13.89° C | 97% | 1012.9 hPa | 0 mm | - | 113 W/m² | - |
| 1778159671 | 14.44° C | 97% | 1012.9 hPa | 0 mm | - | 96 W/m² | - |
| 1778159368 | 13.89° C | 97% | 1012.5 hPa | 0 mm | - | 73 W/m² | - |
| 1778159065 | 13.89° C | 97% | 1013.1 hPa | 0 mm | - | 79 W/m² | - |
| 1778158764 | 13.89° C | 97% | 1013 hPa | 0 mm | - | 64 W/m² | - |
| 1778158461 | 13.89° C | 97% | 1012.9 hPa | 1.27 mm | - | 67 W/m² | - |
| 1778158158 | 14.44° C | 97% | 1012.8 hPa | 1.27 mm | - | 82 W/m² | - |
| 1778157854 | 14.44° C | 97% | 1012.4 hPa | 0 mm | - | 66 W/m² | - |
| 1778157553 | 14.44° C | 97% | 1012.7 hPa | 0 mm | - | 51 W/m² | - |
| 1778157250 | 14.44° C | 97% | 1012.7 hPa | 0 mm | - | 35 W/m² | - |
| 1778156946 | 14.44° C | 97% | 1012.5 hPa | 0 mm | - | 28 W/m² | - |
| 1778156641 | 14.44° C | 97% | 1012.8 hPa | 0 mm | - | 24 W/m² | - |
| 1778156338 | 15° C | 97% | 1012.5 hPa | 0 mm | - | 34 W/m² | - |
| 1778156033 | 14.44° C | 97% | 1012 hPa | 0 mm | - | 44 W/m² | - |
| 1778155730 | 15° C | 98% | 1012.1 hPa | 0 mm | - | 48 W/m² | - |
| 1778155426 | 15° C | 98% | 1012.2 hPa | 0 mm | - | 54 W/m² | - |
| 1778155123 | 14.44° C | 98% | 1012 hPa | 0 mm | - | 56 W/m² | - |
| 1778154818 | 15° C | 98% | 1011.9 hPa | 0 mm | - | 32 W/m² | - |
| 1778154514 | 15° C | 98% | 1011.6 hPa | 0 mm | - | 31 W/m² | - |
* Rain latest hour (hover to see other rain measurements)
** Current wind speed in m/s (hover to see current wind gust speed)